Flag for USA

Past Weather in Seligman, Arizona, USA — Yesterday and Last 2 Weeks

Now
78 °F

Clear.


Feels Like: 78 °F
Forecast: 88 / 56 °F
Wind: 8 mph from West

Location: Love Field
Current Time: Sep 23, 2020 at 8:02:43 pm
Latest Report: Sep 23, 2020 at 6:53 pm
Visibility: 10 mi
Pressure29.95 "Hg(24.94 "Hg at 1600m altitude)
Humidity: 21%
Dew Point: 35 °F
Location of SeligmanLocation

Past Weather in Seligman — Graph

°F

Seligman Temperature Yesterday

Maximum temperature yesterday: 81 °F (at 12:53 pm)
Minimum temperature yesterday: 58 °F (at 12:53 am)
Average temperature yesterday: 69 °F

High & Low Weather Summary for the Past Weeks

 TemperatureHumidityPressure
High90 °F (Sep 16, 1:53 pm)70% (Sep 21, 11:53 pm)30.11 "Hg (Sep 21, 11:53 pm)
Low41 °F (Sep 10, 5:53 am)7% (Sep 16, 1:53 pm)29.66 "Hg (Sep 8, 6:53 pm)
Average68 °F31%29.96 "Hg
* Reported Sep 8 6:53 pm — Sep 23 6:53 pm, Seligman. Weather by CustomWeather, © 2020

Note: Actual official high and low records may vary slightly from our data, if they occured in-between our weather recording intervals... More about our weather records

Seligman Weather History for the Previous 24 Hours

Scroll right to see more
 ConditionsComfort  
Time TempWeatherWind HumidityBarometerVisibility
6:53 pm
Wed, Sep 23
78 °FClear.8 mph21%29.95 "Hg10 mi
5:53 pm83 °FSunny.7 mph17%29.93 "Hg10 mi
4:53 pm86 °FSunny.5 mph16%29.93 "Hg10 mi
3:53 pm85 °FSunny.5 mph16%29.93 "Hg10 mi
2:53 pm87 °FSunny.13 mph16%29.94 "Hg10 mi
1:53 pm84 °FSunny.3 mph17%29.97 "Hg10 mi
12:53 pm83 °FSunny.6 mph19%30.00 "Hg10 mi
11:53 am82 °FSunny.7 mph21%30.02 "Hg10 mi
10:53 am81 °FSunny.9 mph21%30.03 "Hg10 mi
9:53 am76 °FSunny.3 mph27%30.06 "Hg10 mi
8:53 am69 °FSunny.No wind38%30.08 "Hg10 mi
7:53 am62 °FSunny.No wind50%30.08 "Hg10 mi
6:53 am55 °FSunny.5 mph62%30.07 "Hg10 mi
5:53 am55 °FClear.No wind59%30.05 "Hg10 mi
4:53 am55 °FClear.No wind59%30.04 "Hg10 mi
3:53 am58 °FClear.6 mph56%30.02 "Hg10 mi
2:53 am57 °FClear.8 mph62%30.02 "Hg10 mi
1:53 am58 °FClear.9 mph58%30.03 "Hg10 mi
12:53 am58 °FClear.3 mph62%30.01 "Hg10 mi
11:53 pm
Tue, Sep 22
61 °FClear.5 mph52%30.01 "Hg10 mi
10:53 pm62 °FClear.9 mph52%30.01 "Hg10 mi
9:53 pm64 °FClear.9 mph49%29.99 "Hg10 mi
8:53 pm65 °FPassing clouds.8 mph49%30.01 "Hg10 mi
Weather by CustomWeather, © 2020

See weather overview